BAW375 LFBO-EGLL

Flight info

Callsign BAW375
Flight time 1h 24m
Altitude 34000
Route LACOU DCT CHALA DCT CNA DCT MANAK DCT EPAPU DCT RINSO DCT EKRAS DCT REVTU DCT BOLRO UP87 ROXOG
Aircraft A319/M-SDE3FGHIRWY/LB1

Departure

Time 2026-05-05 19:57
Airport Toulouse-Blagnac Airport (LFBO)

Arrival

Time 2026-05-05 21:21
Airport London Heathrow Airport (EGLL)
Time Latitude Longitude Altitude Speed Heading
2026-05-05 19:27 43.63271 1.36918 501 ft 0 kts 144°
2026-05-05 19:46 43.63277 1.36912 501 ft 2 kts 144°
2026-05-05 19:47 43.63291 1.36898 501 ft 2 kts 144°
2026-05-05 19:47 43.63304 1.36885 501 ft 2 kts 144°
2026-05-05 19:47 43.63317 1.36871 501 ft 3 kts 144°
2026-05-05 19:47 43.63336 1.36853 501 ft 3 kts 144°
2026-05-05 19:48 43.63355 1.36833 501 ft 3 kts 144°
2026-05-05 19:48 43.63374 1.36814 501 ft 3 kts 143°
2026-05-05 19:48 43.63381 1.36807 501 ft 0 kts 143°
2026-05-05 19:51 43.63380 1.36808 501 ft 1 kts 143°
2026-05-05 19:51 43.63361 1.36821 501 ft 6 kts 165°
2026-05-05 19:51 43.63323 1.36773 501 ft 9 kts 237°
2026-05-05 19:51 43.63281 1.36687 501 ft 12 kts 236°
2026-05-05 19:52 43.63207 1.36628 501 ft 14 kts 163°
2026-05-05 19:52 43.63120 1.36714 501 ft 17 kts 143°
2026-05-05 19:52 43.63022 1.36817 502 ft 19 kts 142°
2026-05-05 19:52 43.62910 1.36933 502 ft 21 kts 143°
2026-05-05 19:53 43.62785 1.37063 502 ft 24 kts 143°
2026-05-05 19:53 43.62646 1.37208 503 ft 27 kts 143°
2026-05-05 19:53 43.62505 1.37355 503 ft 23 kts 143°
2026-05-05 19:53 43.62368 1.37498 504 ft 26 kts 143°
2026-05-05 19:54 43.62215 1.37656 504 ft 29 kts 143°
2026-05-05 19:54 43.62071 1.37805 505 ft 22 kts 143°
2026-05-05 19:54 43.61941 1.37941 504 ft 25 kts 143°
2026-05-05 19:54 43.61828 1.38058 504 ft 20 kts 142°
2026-05-05 19:55 43.61717 1.38169 503 ft 19 kts 153°
2026-05-05 19:55 43.61638 1.38130 504 ft 11 kts 231°
2026-05-05 19:55 43.61593 1.38034 503 ft 14 kts 256°
2026-05-05 19:55 43.61635 1.37943 503 ft 10 kts 324°
2026-05-05 19:56 43.61732 1.37847 503 ft 36 kts 323°
2026-05-05 19:56 43.62100 1.37464 504 ft 95 kts 323°
2026-05-05 19:56 43.62782 1.36757 504 ft 148 kts 323°
2026-05-05 19:56 43.63688 1.35820 829 ft 165 kts 322°
2026-05-05 19:57 43.64605 1.34903 1505 ft 165 kts 322°
2026-05-05 19:57 43.65531 1.33911 2073 ft 176 kts 318°
2026-05-05 19:57 43.66546 1.32770 2392 ft 201 kts 318°
2026-05-05 19:57 43.67696 1.31471 2834 ft 226 kts 319°
2026-05-05 19:58 43.68974 1.30033 3440 ft 246 kts 319°
2026-05-05 19:58 43.70322 1.28532 4400 ft 251 kts 320°
2026-05-05 19:58 43.71734 1.27083 5389 ft 257 kts 329°
2026-05-05 19:58 43.73442 1.26270 6345 ft 264 kts 345°
2026-05-05 19:59 43.75246 1.25677 7244 ft 269 kts 345°
2026-05-05 19:59 43.77076 1.25039 8141 ft 273 kts 339°
2026-05-05 19:59 43.78828 1.23978 9013 ft 277 kts 333°
2026-05-05 19:59 43.80588 1.22827 9899 ft 282 kts 332°
2026-05-05 20:00 43.82417 1.21628 10371 ft 302 kts 333°
2026-05-05 20:00 43.84384 1.20334 10701 ft 323 kts 333°
2026-05-05 20:00 43.86445 1.18980 11348 ft 331 kts 333°
2026-05-05 20:00 43.88545 1.17606 12095 ft 336 kts 333°
2026-05-05 20:01 43.90646 1.16233 12840 ft 340 kts 333°
2026-05-05 20:01 43.92828 1.14803 13610 ft 345 kts 333°
2026-05-05 20:01 43.95008 1.13371 14291 ft 349 kts 333°
2026-05-05 20:01 43.97213 1.11923 14971 ft 352 kts 333°
2026-05-05 20:02 43.99437 1.10460 15655 ft 356 kts 332°
2026-05-05 20:02 44.01683 1.08978 16324 ft 359 kts 332°
2026-05-05 20:02 44.03949 1.07481 17002 ft 363 kts 332°
2026-05-05 20:02 44.06212 1.05987 17676 ft 366 kts 332°
2026-05-05 20:03 44.08527 1.04460 18342 ft 370 kts 332°
2026-05-05 20:03 44.10861 1.02920 18925 ft 374 kts 332°
2026-05-05 20:03 44.13224 1.01359 19473 ft 378 kts 332°
2026-05-05 20:03 44.15611 0.99777 20047 ft 382 kts 332°
2026-05-05 20:04 44.18028 0.98173 20607 ft 387 kts 332°
2026-05-05 20:04 44.20472 0.96551 21155 ft 391 kts 332°
2026-05-05 20:04 44.22944 0.94912 21702 ft 396 kts 332°
2026-05-05 20:04 44.25441 0.93253 22246 ft 400 kts 332°
2026-05-05 20:05 44.27966 0.91573 22764 ft 404 kts 331°
2026-05-05 20:05 44.30515 0.89869 23285 ft 408 kts 331°
2026-05-05 20:05 44.33073 0.88096 23759 ft 412 kts 330°
2026-05-05 20:05 44.35636 0.86260 24195 ft 415 kts 329°
2026-05-05 20:06 44.38205 0.84389 24636 ft 418 kts 329°
2026-05-05 20:06 44.40793 0.82492 25078 ft 421 kts 329°
2026-05-05 20:06 44.43400 0.80586 25515 ft 424 kts 329°
2026-05-05 20:06 44.46026 0.78681 25940 ft 427 kts 330°
2026-05-05 20:07 44.48681 0.76765 26372 ft 430 kts 330°
2026-05-05 20:07 44.51355 0.74841 26794 ft 433 kts 330°
2026-05-05 20:07 44.54048 0.72909 27208 ft 436 kts 330°
2026-05-05 20:07 44.56760 0.70967 27626 ft 440 kts 330°
2026-05-05 20:08 44.59488 0.69005 28042 ft 443 kts 330°
2026-05-05 20:08 44.62237 0.67016 28443 ft 446 kts 330°
2026-05-05 20:08 44.64999 0.65006 28835 ft 449 kts 330°
2026-05-05 20:08 44.67778 0.62977 29218 ft 452 kts 330°
2026-05-05 20:09 44.70541 0.60961 29597 ft 455 kts 330°
2026-05-05 20:09 44.73362 0.58904 29965 ft 458 kts 330°
2026-05-05 20:09 44.76201 0.56833 30275 ft 461 kts 330°
2026-05-05 20:09 44.79051 0.54753 30579 ft 463 kts 330°
2026-05-05 20:10 44.81921 0.52662 30890 ft 465 kts 330°
2026-05-05 20:10 44.84801 0.50564 31182 ft 467 kts 331°
2026-05-05 20:10 44.87697 0.48453 31480 ft 469 kts 330°
2026-05-05 20:10 44.90594 0.46337 31850 ft 469 kts 330°
2026-05-05 20:11 44.93485 0.44217 32283 ft 467 kts 330°
2026-05-05 20:11 44.96370 0.42096 32705 ft 466 kts 330°
2026-05-05 20:11 44.99245 0.39982 33117 ft 466 kts 330°
2026-05-05 20:11 45.02115 0.37866 33534 ft 465 kts 330°
2026-05-05 20:12 45.04981 0.35749 33891 ft 465 kts 330°
2026-05-05 20:12 45.10653 0.31563 33962 ft 454 kts 330°
2026-05-05 20:13 45.16234 0.27430 33953 ft 452 kts 330°
2026-05-05 20:13 45.21800 0.23305 33953 ft 451 kts 330°
2026-05-05 20:14 45.27359 0.19174 33950 ft 451 kts 330°
2026-05-05 20:14 45.32876 0.15061 33952 ft 450 kts 330°
2026-05-05 20:15 45.37848 0.09767 33951 ft 445 kts 312°
2026-05-05 20:15 45.42177 0.03473 33934 ft 445 kts 313°
2026-05-05 20:16 45.46530 -0.02824 33943 ft 445 kts 313°
2026-05-05 20:16 45.50873 -0.09114 33934 ft 445 kts 313°
2026-05-05 20:17 45.55210 -0.15424 33932 ft 445 kts 313°
2026-05-05 20:17 45.59537 -0.21755 33938 ft 445 kts 313°
2026-05-05 20:18 45.63861 -0.28097 33944 ft 445 kts 313°
2026-05-05 20:18 45.68476 -0.33999 33946 ft 446 kts 321°
2026-05-05 20:19 45.73361 -0.39472 33941 ft 446 kts 321°
2026-05-05 20:19 45.78234 -0.44969 33941 ft 446 kts 321°
2026-05-05 20:20 45.83062 -0.50444 33937 ft 445 kts 321°
2026-05-05 20:20 45.87920 -0.55963 33929 ft 445 kts 321°
2026-05-05 20:21 45.92778 -0.61482 33928 ft 445 kts 321°
2026-05-05 20:21 45.97639 -0.67011 33918 ft 445 kts 321°
2026-05-05 20:22 46.02495 -0.72550 33917 ft 446 kts 321°
2026-05-05 20:22 46.07349 -0.78102 33912 ft 446 kts 321°
2026-05-05 20:23 46.12204 -0.83671 33917 ft 446 kts 321°
2026-05-05 20:23 46.17055 -0.89247 33919 ft 446 kts 321°
2026-05-05 20:24 46.22311 -0.93968 33918 ft 446 kts 338°
2026-05-05 20:24 46.28289 -0.96318 33911 ft 445 kts 348°
2026-05-05 20:25 46.34314 -0.98156 33909 ft 445 kts 348°
2026-05-05 20:25 46.40373 -1.00020 33918 ft 445 kts 348°
2026-05-05 20:26 46.46431 -1.01886 33909 ft 445 kts 348°
2026-05-05 20:26 46.52475 -1.03756 33907 ft 444 kts 348°
2026-05-05 20:27 46.58512 -1.05621 33901 ft 443 kts 348°
2026-05-05 20:27 46.64547 -1.07487 33911 ft 443 kts 348°
2026-05-05 20:28 46.70568 -1.09350 33917 ft 442 kts 348°
2026-05-05 20:28 46.76577 -1.11215 33923 ft 441 kts 348°
2026-05-05 20:29 46.82572 -1.13090 33922 ft 440 kts 348°
2026-05-05 20:29 46.88551 -1.14974 33916 ft 439 kts 349°
2026-05-05 20:30 46.94480 -1.16840 33911 ft 439 kts 349°
2026-05-05 20:30 47.00443 -1.18715 33903 ft 438 kts 349°
2026-05-05 20:31 47.06400 -1.20580 33907 ft 438 kts 349°
2026-05-05 20:31 47.12355 -1.22457 33896 ft 437 kts 349°
2026-05-05 20:32 47.18310 -1.24343 33892 ft 438 kts 349°
2026-05-05 20:32 47.23255 -1.25917 33898 ft 438 kts 349°
2026-05-05 20:33 47.29211 -1.27812 33891 ft 438 kts 349°
2026-05-05 20:33 47.35172 -1.29693 33891 ft 438 kts 349°
2026-05-05 20:34 47.41127 -1.31590 33897 ft 438 kts 349°
2026-05-05 20:34 47.47081 -1.33497 33890 ft 438 kts 349°
2026-05-05 20:35 47.53033 -1.35414 33891 ft 437 kts 349°
2026-05-05 20:35 47.58979 -1.37323 33894 ft 437 kts 349°
2026-05-05 20:36 47.64888 -1.39222 33898 ft 437 kts 349°
2026-05-05 20:36 47.70839 -1.41065 33898 ft 437 kts 354°
2026-05-05 20:37 47.76886 -1.41633 33906 ft 435 kts 359°
2026-05-05 20:37 47.82935 -1.42080 33908 ft 435 kts 359°
2026-05-05 20:38 47.88979 -1.42545 33915 ft 435 kts 359°
2026-05-05 20:38 47.95026 -1.42997 33921 ft 435 kts 359°
2026-05-05 20:39 48.01077 -1.43455 33926 ft 435 kts 358°
2026-05-05 20:39 48.07127 -1.43909 33930 ft 435 kts 359°
2026-05-05 20:40 48.13139 -1.44335 33931 ft 435 kts 359°
2026-05-05 20:40 48.19228 -1.44765 33938 ft 435 kts 359°
2026-05-05 20:41 48.25235 -1.45189 33933 ft 435 kts 359°
2026-05-05 20:41 48.31275 -1.45627 33931 ft 435 kts 358°
2026-05-05 20:42 48.37318 -1.46074 33932 ft 434 kts 359°
2026-05-05 20:42 48.43352 -1.46513 33930 ft 434 kts 359°
2026-05-05 20:43 48.49389 -1.46951 33928 ft 434 kts 358°
2026-05-05 20:43 48.55425 -1.47390 33928 ft 434 kts 358°
2026-05-05 20:44 48.61468 -1.47830 33926 ft 434 kts 359°
2026-05-05 20:44 48.67502 -1.48261 33929 ft 434 kts 358°
2026-05-05 20:45 48.76523 -1.48928 33930 ft 435 kts 358°
2026-05-05 20:45 48.82563 -1.49370 33933 ft 435 kts 358°
2026-05-05 20:46 48.88605 -1.49816 33935 ft 435 kts 357°
2026-05-05 20:46 48.94581 -1.51391 33928 ft 436 kts 349°
2026-05-05 20:47 49.00519 -1.53319 33926 ft 436 kts 349°
2026-05-05 20:47 49.06463 -1.55229 33936 ft 436 kts 349°
2026-05-05 20:48 49.12408 -1.57132 33937 ft 436 kts 349°
2026-05-05 20:48 49.18353 -1.59048 33939 ft 437 kts 349°
2026-05-05 20:49 49.24261 -1.60958 33945 ft 437 kts 349°
2026-05-05 20:49 49.30237 -1.62897 33947 ft 436 kts 348°
2026-05-05 20:50 49.36178 -1.64833 33947 ft 436 kts 348°
2026-05-05 20:50 49.42065 -1.66765 33953 ft 436 kts 348°
2026-05-05 20:51 49.47987 -1.68706 33959 ft 435 kts 348°
2026-05-05 20:51 49.53908 -1.70642 33963 ft 434 kts 348°
2026-05-05 20:52 49.59848 -1.72300 33967 ft 433 kts 356°
2026-05-05 20:52 49.65857 -1.72042 33971 ft 432 kts
2026-05-05 20:53 49.71867 -1.71543 33970 ft 432 kts
2026-05-05 20:53 49.77863 -1.71032 33964 ft 431 kts
2026-05-05 20:54 49.83856 -1.70520 33959 ft 431 kts
2026-05-05 20:54 49.89846 -1.70030 33552 ft 432 kts
2026-05-05 20:55 49.92845 -1.69783 33056 ft 432 kts
2026-05-05 20:55 49.95846 -1.69531 32564 ft 433 kts
2026-05-05 20:55 49.98848 -1.69206 32076 ft 431 kts
2026-05-05 20:55 50.01777 -1.68299 31604 ft 428 kts 16°
2026-05-05 20:56 50.04614 -1.66932 31149 ft 426 kts 17°
2026-05-05 20:56 50.07435 -1.65561 30684 ft 423 kts 17°
2026-05-05 20:56 50.10237 -1.64203 30241 ft 420 kts 17°
2026-05-05 20:56 50.13010 -1.62860 29759 ft 418 kts 17°
2026-05-05 20:57 50.15741 -1.61539 29248 ft 415 kts 17°
2026-05-05 20:57 50.18484 -1.60208 28732 ft 412 kts 17°
2026-05-05 20:57 50.21212 -1.58883 28241 ft 408 kts 17°
2026-05-05 20:57 50.23834 -1.57609 27767 ft 405 kts 17°
2026-05-05 20:58 50.26513 -1.56307 27285 ft 402 kts 17°
2026-05-05 20:58 50.29169 -1.55011 26810 ft 398 kts 17°
2026-05-05 20:58 50.31805 -1.53716 26349 ft 395 kts 17°
2026-05-05 20:58 50.34416 -1.52432 25899 ft 392 kts 17°
2026-05-05 20:59 50.37004 -1.51157 25471 ft 388 kts 17°
2026-05-05 20:59 50.39577 -1.49892 25052 ft 386 kts 17°
2026-05-05 20:59 50.42131 -1.48642 24640 ft 383 kts 17°
2026-05-05 20:59 50.44665 -1.47400 24234 ft 380 kts 16°
2026-05-05 21:00 50.47176 -1.46161 23832 ft 377 kts 17°
2026-05-05 21:00 50.49664 -1.44931 23422 ft 374 kts 16°
2026-05-05 21:00 50.52142 -1.43711 22942 ft 371 kts 16°
2026-05-05 21:00 50.54536 -1.42234 22483 ft 369 kts 26°
2026-05-05 21:01 50.56788 -1.40305 22028 ft 367 kts 28°
2026-05-05 21:01 50.59023 -1.38381 21584 ft 365 kts 27°
2026-05-05 21:01 50.61241 -1.36484 21138 ft 362 kts 27°
2026-05-05 21:01 50.63448 -1.34596 20702 ft 360 kts 28°
2026-05-05 21:02 50.65638 -1.32720 20277 ft 357 kts 28°
2026-05-05 21:02 50.67818 -1.30846 19856 ft 355 kts 28°
2026-05-05 21:02 50.69952 -1.29009 19440 ft 353 kts 28°
2026-05-05 21:02 50.72104 -1.27157 19025 ft 351 kts 28°
2026-05-05 21:03 50.74237 -1.25315 18622 ft 349 kts 28°
2026-05-05 21:03 50.76355 -1.23472 18215 ft 347 kts 30°
2026-05-05 21:03 50.78418 -1.21521 17754 ft 344 kts 32°
2026-05-05 21:03 50.80421 -1.19478 17299 ft 342 kts 33°
2026-05-05 21:04 50.82394 -1.17395 16855 ft 340 kts 34°
2026-05-05 21:04 50.84347 -1.15310 16411 ft 337 kts 33°
2026-05-05 21:04 50.86291 -1.13247 15972 ft 335 kts 33°
2026-05-05 21:04 50.88226 -1.11216 15537 ft 333 kts 33°
2026-05-05 21:05 50.90156 -1.09207 15110 ft 331 kts 33°
2026-05-05 21:05 50.91921 -1.07375 14725 ft 329 kts 33°
2026-05-05 21:05 50.93829 -1.05399 14320 ft 327 kts 32°
2026-05-05 21:05 50.95728 -1.03435 13910 ft 325 kts 32°
2026-05-05 21:06 50.97616 -1.01481 13497 ft 323 kts 32°
2026-05-05 21:06 50.99485 -0.99540 13125 ft 321 kts 33°
2026-05-05 21:06 51.01190 -0.97276 12753 ft 319 kts 45°
2026-05-05 21:06 51.02668 -0.94651 12390 ft 318 kts 47°
2026-05-05 21:07 51.04135 -0.92032 12033 ft 316 kts 47°
2026-05-05 21:07 51.05593 -0.89435 11675 ft 314 kts 47°
2026-05-05 21:07 51.07042 -0.86856 11323 ft 312 kts 47°
2026-05-05 21:07 51.08485 -0.84290 10981 ft 310 kts 46°
2026-05-05 21:08 51.09899 -0.81776 10638 ft 308 kts 46°
2026-05-05 21:08 51.11323 -0.79240 10295 ft 306 kts 46°
2026-05-05 21:08 51.12730 -0.76727 9957 ft 302 kts 46°
2026-05-05 21:08 51.14102 -0.74265 9588 ft 291 kts 46°
2026-05-05 21:09 51.15428 -0.71884 9219 ft 286 kts 46°
2026-05-05 21:09 51.16740 -0.69528 8851 ft 284 kts 46°
2026-05-05 21:09 51.18047 -0.67187 8488 ft 281 kts 46°
2026-05-05 21:09 51.19344 -0.64863 8122 ft 279 kts 47°
2026-05-05 21:10 51.20042 -0.63610 7928 ft 278 kts 47°
2026-05-05 21:10 51.21333 -0.61287 7569 ft 277 kts 47°
2026-05-05 21:10 51.22508 -0.59170 7246 ft 275 kts 47°
2026-05-05 21:10 51.23771 -0.56891 6895 ft 274 kts 47°
2026-05-05 21:11 51.25027 -0.54621 6540 ft 271 kts 47°
2026-05-05 21:11 51.26249 -0.52415 6185 ft 261 kts 47°
2026-05-05 21:11 51.27586 -0.50631 6021 ft 241 kts 24°
2026-05-05 21:11 51.29162 -0.50046 6034 ft 232 kts 359°
2026-05-05 21:12 51.30709 -0.50652 6026 ft 231 kts 333°
2026-05-05 21:12 51.31919 -0.52324 6030 ft 234 kts 306°
2026-05-05 21:12 51.32576 -0.54713 6035 ft 237 kts 289°
2026-05-05 21:12 51.33082 -0.57208 6030 ft 236 kts 289°
2026-05-05 21:13 51.33590 -0.59712 6028 ft 236 kts 289°
2026-05-05 21:13 51.34088 -0.62163 6036 ft 236 kts 289°
2026-05-05 21:13 51.34609 -0.64711 5948 ft 238 kts 289°
2026-05-05 21:13 51.35108 -0.67184 5705 ft 236 kts 289°
2026-05-05 21:14 51.35607 -0.69722 5463 ft 235 kts 289°
2026-05-05 21:14 51.36086 -0.72185 5236 ft 235 kts 289°
2026-05-05 21:14 51.36571 -0.74677 5007 ft 235 kts 289°
2026-05-05 21:14 51.37315 -0.76960 4770 ft 231 kts 314°
2026-05-05 21:15 51.38619 -0.78385 4535 ft 227 kts 342°
2026-05-05 21:15 51.40165 -0.78736 4313 ft 225 kts 359°
2026-05-05 21:15 51.41725 -0.78817 4078 ft 224 kts 359°
2026-05-05 21:15 51.43279 -0.78900 3843 ft 223 kts 359°
2026-05-05 21:16 51.44826 -0.78983 3614 ft 222 kts 359°
2026-05-05 21:16 51.46359 -0.78894 3368 ft 220 kts 17°
2026-05-05 21:16 51.47550 -0.77480 3144 ft 217 kts 59°
2026-05-05 21:16 51.47903 -0.75154 3026 ft 220 kts 92°
2026-05-05 21:17 51.47608 -0.72825 3001 ft 205 kts 97°
2026-05-05 21:17 51.47597 -0.70607 2824 ft 195 kts 86°
2026-05-05 21:17 51.47637 -0.68481 2594 ft 185 kts 87°
2026-05-05 21:17 51.47657 -0.66451 2355 ft 180 kts 88°
2026-05-05 21:18 51.47670 -0.64477 2105 ft 171 kts 88°
2026-05-05 21:18 51.47681 -0.62643 1893 ft 160 kts 88°
2026-05-05 21:18 51.47690 -0.60885 1673 ft 156 kts 89°
2026-05-05 21:18 51.47699 -0.59149 1454 ft 154 kts 89°
2026-05-05 21:19 51.47707 -0.57549 1248 ft 136 kts 89°
2026-05-05 21:19 51.47714 -0.56081 1071 ft 129 kts 88°
2026-05-05 21:19 51.47721 -0.54662 891 ft 127 kts 88°
2026-05-05 21:19 51.47728 -0.53264 709 ft 126 kts 87°
2026-05-05 21:20 51.47734 -0.51859 549 ft 126 kts 87°
2026-05-05 21:20 51.47739 -0.50454 362 ft 126 kts 87°
2026-05-05 21:20 51.47744 -0.49055 190 ft 125 kts 87°
2026-05-05 21:20 51.47749 -0.47673 90 ft 117 kts 87°
2026-05-05 21:21 51.47757 -0.46573 90 ft 76 kts 89°
2026-05-05 21:21 51.47759 -0.45995 86 ft 34 kts 89°
2026-05-05 21:21 51.47760 -0.45638 85 ft 21 kts 90°
2026-05-05 21:21 51.47725 -0.45479 86 ft 15 kts 153°
2026-05-05 21:22 51.47648 -0.45470 87 ft 6 kts 180°
2026-05-05 21:22 51.47638 -0.45470 87 ft 0 kts 180°
2026-05-05 21:22 51.47635 -0.45470 87 ft 2 kts 180°
2026-05-05 21:23 51.47599 -0.45512 87 ft 10 kts 246°
2026-05-05 21:23 51.47596 -0.45643 91 ft 13 kts 269°
2026-05-05 21:23 51.47595 -0.45872 90 ft 18 kts 270°
2026-05-05 21:23 51.47594 -0.46083 87 ft 20 kts 269°
2026-05-05 21:24 51.47594 -0.46242 87 ft 22 kts 269°
2026-05-05 21:24 51.47593 -0.46499 87 ft 25 kts 270°
2026-05-05 21:24 51.47591 -0.46752 87 ft 20 kts 270°
2026-05-05 21:24 51.47582 -0.46986 87 ft 21 kts 270°
2026-05-05 21:25 51.47582 -0.47161 88 ft 17 kts 269°
2026-05-05 21:25 51.47581 -0.47361 87 ft 18 kts 270°
2026-05-05 21:25 51.47581 -0.47535 89 ft 16 kts 270°
2026-05-05 21:25 51.47580 -0.47731 89 ft 19 kts 270°
2026-05-05 21:26 51.47579 -0.47958 89 ft 22 kts 269°
2026-05-05 21:26 51.47578 -0.48216 87 ft 24 kts 270°
2026-05-05 21:26 51.47576 -0.48423 88 ft 15 kts 260°
2026-05-05 21:26 51.47486 -0.48478 87 ft 17 kts 180°
2026-05-05 21:27 51.47384 -0.48477 87 ft 15 kts 180°
2026-05-05 21:27 51.47273 -0.48475 87 ft 15 kts 179°
2026-05-05 21:27 51.47232 -0.48539 87 ft 8 kts 269°
2026-05-05 21:27 51.47232 -0.48592 87 ft 0 kts 269°